Ogallala, NE

9:39 AM MDT on June 23, 2017 (GMT -0600)
Searle

Weather History for KOGA - February, 2013

Change the Weather History Date:

Friday, February 1, 2013

  Actual Average Record
Temperature  
Mean Temperature 34 °F -  
Max Temperature 47 °F 40 °F 70 °F (1953)
Min Temperature 20 °F 12 °F -24 °F (1951)
Degree Days  
Heating Degree Days 32    
Moisture  
Dew Point 26 °F    
Average Humidity 76    
Maximum Humidity 94    
Minimum Humidity 49    
Precipitation  
Precipitation 0.00 in - - ()
Sea Level Pressure  
Sea Level Pressure 30.06 in    
Wind  
Wind Speed 7 mph (West)    
Max Wind Speed 17 mph    
Max Gust Speed 22 mph    
Visibility 10 miles    
Events Rain    
Averages and records for this station are not official NWS values.
T = Trace of Precipitation, MM = Missing Value Source: NWS Daily Summary

Daily Weather History Graph

Daily Weather History Graph

Search for Another Location

Airport or City:

Trip Planner

Search our weather history database for the weather conditions in past years. The results will help you decide how hot, cold, wet, or windy it might be!

Date:

Astronomy

Feb. 01, 2013 Rise Set
Actual Time 6:57 AM MST 5:04 PM MST
Civil Twilight 6:28 AM MST 5:33 PM MST
Nautical Twilight 5:55 AM MST 6:06 PM MST
Astronomical Twilight 5:23 AM MST 6:38 PM MST
Moon 11:17 PM MST (2/1) 9:28 AM MST (2/1)
Length of Visible Light 11h 04m
Length of Day
10h 06m
Waning Gibbous, 69% of the Moon is Illuminated
Feb 1
Waning Gibbous
Feb 3
Last Quarter
Feb 10
New
Feb 17
First Quarter
Feb 25
Full

Hourly Weather History & Observations

Time (MST) Temp. Windchill Dew Point Humidity Pressure Visibility Wind Dir Wind Speed Gust Speed Precip Events Conditions
12:15 AM 29.3 °F 24.3 °F 21.2 °F 72% 30.14 in 10.0 mi SW 4.6 mph - N/A   Overcast
12:35 AM 29.3 °F 20.2 °F 20.8 °F 71% 30.14 in 10.0 mi WSW 10.4 mph - N/A   Overcast
12:55 AM 29.3 °F 22.3 °F 20.7 °F 70% 30.13 in 10.0 mi WSW 6.9 mph - N/A   Overcast
1:15 AM 29.8 °F 21.5 °F 20.7 °F 69% 30.13 in 10.0 mi WSW 9.2 mph - N/A   Overcast
1:35 AM 28.4 °F 21.2 °F 19.9 °F 71% 30.12 in 10.0 mi WSW 6.9 mph - N/A   Mostly Cloudy
1:55 AM 25.3 °F 17.6 °F 18.3 °F 75% 30.12 in 10.0 mi West 6.9 mph - N/A   Clear
2:15 AM 25.5 °F 18.7 °F 18.7 °F 75% 30.12 in 10.0 mi West 5.8 mph - N/A   Clear
2:35 AM 22.5 °F 15.1 °F 16.9 °F 79% 30.12 in 10.0 mi WSW 5.8 mph - N/A   Clear
3:15 AM 22.8 °F 16.7 °F 17.8 °F 81% 30.11 in 10.0 mi West 4.6 mph - N/A   Clear
3:35 AM 21.6 °F 12.1 °F 17.2 °F 83% 30.11 in 10.0 mi West 8.1 mph - N/A   Clear
3:55 AM 21.4 °F 12.8 °F 16.9 °F 83% 30.10 in 10.0 mi WSW 6.9 mph - N/A   Clear
4:15 AM 21.2 °F 13.6 °F 17.2 °F 85% 30.09 in 10.0 mi West 5.8 mph - N/A   Clear
4:35 AM 20.1 °F 13.6 °F 16.0 °F 84% 30.09 in 10.0 mi West 4.6 mph - N/A   Scattered Clouds
4:55 AM 21.0 °F 16.2 °F 16.7 °F 83% 30.08 in 10.0 mi West 3.5 mph - N/A   Overcast
5:15 AM 21.2 °F - 16.9 °F 83% 30.08 in 10.0 mi Calm Calm - N/A   Overcast
5:35 AM 21.7 °F 14.3 °F 16.7 °F 81% 30.07 in 10.0 mi SW 5.8 mph - N/A   Mostly Cloudy
5:55 AM 21.2 °F 10.9 °F 16.3 °F 82% 30.07 in 10.0 mi WSW 9.2 mph - N/A   Scattered Clouds
6:15 AM 20.8 °F 12.1 °F 16.7 °F 84% 30.07 in 10.0 mi WSW 6.9 mph - N/A   Scattered Clouds
6:35 AM 21.0 °F - 16.7 °F 83% 30.07 in 10.0 mi Calm Calm - N/A   Mostly Cloudy
7:15 AM 21.2 °F - 17.4 °F 85% 30.06 in 10.0 mi Calm Calm - N/A   Overcast
7:35 AM 21.6 °F - 17.6 °F 85% 30.05 in 10.0 mi Calm Calm - N/A   Mostly Cloudy
8:15 AM 24.1 °F 16.0 °F 19.4 °F 82% 30.05 in 10.0 mi West 6.9 mph - N/A   Overcast
8:35 AM 26.6 °F 18.2 °F 20.8 °F 79% 30.04 in 10.0 mi West 8.1 mph - N/A   Overcast
8:55 AM 27.9 °F 18.4 °F 21.9 °F 78% 30.04 in 10.0 mi WSW 10.4 mph - N/A   Mostly Cloudy
9:15 AM 30.6 °F 21.8 °F 23.5 °F 75% 30.04 in 10.0 mi WSW 10.4 mph - N/A   Overcast
9:35 AM 32.2 °F 23.8 °F 24.4 °F 73% 30.04 in 10.0 mi WSW 10.4 mph - N/A   Overcast
9:55 AM 34.9 °F 28.3 °F 25.5 °F 69% 30.04 in 10.0 mi West 8.1 mph - N/A   Overcast
10:15 AM 36.7 °F 29.4 °F 25.7 °F 64% 30.04 in 10.0 mi WSW 10.4 mph - N/A   Overcast
10:35 AM 36.7 °F 31.2 °F 26.6 °F 67% 30.03 in 10.0 mi WSW 6.9 mph - N/A   Overcast
10:55 AM 37.4 °F 31.4 °F 27.3 °F 67% 30.02 in 10.0 mi West 8.1 mph - N/A   Overcast
11:15 AM 39.7 °F 34.3 °F 28.4 °F 64% 30.02 in 10.0 mi West 8.1 mph - N/A   Overcast
11:35 AM 43.9 °F 37.9 °F 30.0 °F 58% 30.01 in 10.0 mi West 11.5 mph - N/A   Overcast
11:55 AM 45.0 °F 39.3 °F 29.7 °F 55% 30.00 in 10.0 mi West 11.5 mph 18.4 mph N/A   Scattered Clouds
12:15 PM 46.4 °F 41.1 °F 29.7 °F 52% 29.99 in 10.0 mi WNW 11.5 mph 17.3 mph N/A   Mostly Cloudy
12:35 PM 47.7 °F - 29.3 °F 49% 29.98 in 10.0 mi WNW 13.8 mph - N/A   Overcast
12:55 PM 46.6 °F - 29.1 °F 51% 29.97 in 10.0 mi West 13.8 mph - N/A   Overcast
1:15 PM 47.5 °F - 30.0 °F 51% 29.97 in 10.0 mi WNW 11.5 mph - N/A   Mostly Cloudy
1:35 PM 47.3 °F - 30.2 °F 52% 29.97 in 10.0 mi WNW 10.4 mph - N/A   Mostly Cloudy
1:55 PM 46.4 °F 42.9 °F 30.4 °F 54% 29.96 in 10.0 mi WNW 6.9 mph - N/A   Scattered Clouds
2:15 PM 46.9 °F - 30.7 °F 53% 29.96 in 10.0 mi NW 8.1 mph - N/A   Scattered Clouds
2:35 PM 47.5 °F - 31.1 °F 53% 29.97 in 10.0 mi NW 8.1 mph - N/A   Overcast
2:55 PM 47.3 °F - 31.1 °F 53% 29.97 in 10.0 mi NNW 8.1 mph - N/A   Overcast
3:15 PM 46.8 °F - 31.8 °F 56% 29.97 in 10.0 mi NW 4.6 mph - N/A   Overcast
3:35 PM 46.9 °F - 32.0 °F 56% 29.98 in 10.0 mi NW 4.6 mph - N/A   Overcast
3:55 PM 46.0 °F 43.1 °F 31.8 °F 58% 30.00 in 10.0 mi WNW 5.8 mph - N/A   Overcast
4:15 PM 45.3 °F 38.1 °F 31.8 °F 59% 30.00 in 10.0 mi NNW 17.3 mph 21.9 mph N/A Rain Light Rain
4:35 PM 42.6 °F 38.4 °F 33.8 °F 71% 30.01 in 10.0 mi NNW 6.9 mph 11.5 mph N/A Rain Light Rain
4:55 PM 41.2 °F 37.3 °F 33.4 °F 74% 30.02 in 10.0 mi NW 5.8 mph - N/A   Overcast
5:15 PM 41.2 °F 33.4 °F 33.8 °F 75% 30.03 in 10.0 mi NNW 15.0 mph 19.6 mph N/A   Overcast
5:35 PM 40.1 °F 33.6 °F 34.0 °F 79% 30.03 in 10.0 mi NW 10.4 mph - N/A   Overcast
5:55 PM 38.5 °F 30.7 °F 33.8 °F 83% 30.04 in 10.0 mi NW 12.7 mph - N/A   Mostly Cloudy
6:15 PM 37.4 °F 32.1 °F 33.3 °F 85% 30.05 in 10.0 mi NW 6.9 mph - N/A   Overcast
6:35 PM 36.1 °F 30.6 °F 32.7 °F 87% 30.05 in 10.0 mi NW 6.9 mph - N/A   Mostly Cloudy
6:55 PM 34.7 °F 29.6 °F 32.0 °F 90% 30.07 in 10.0 mi NW 5.8 mph - N/A   Mostly Cloudy
7:15 PM 34.7 °F 28.8 °F 32.0 °F 90% 30.07 in 10.0 mi NW 6.9 mph - N/A   Scattered Clouds
7:35 PM 34.7 °F 28.8 °F 32.0 °F 90% 30.08 in 10.0 mi NW 6.9 mph - N/A   Clear
7:55 PM 31.3 °F 23.9 °F 28.9 °F 91% 30.09 in 10.0 mi WSW 8.1 mph - N/A   Clear
8:15 PM 31.3 °F 24.7 °F 29.8 °F 94% 30.10 in 10.0 mi West 6.9 mph - N/A   Clear
8:35 PM 30.7 °F 24.1 °F 28.9 °F 93% 30.11 in 10.0 mi West 6.9 mph - N/A   Clear
8:55 PM 29.8 °F 23.0 °F 28.0 °F 93% 30.11 in 10.0 mi West 6.9 mph - N/A   Clear
9:15 PM 29.8 °F 23.0 °F 28.2 °F 94% 30.12 in 10.0 mi West 6.9 mph - N/A   Clear
9:35 PM 29.1 °F 22.1 °F 27.7 °F 94% 30.13 in 10.0 mi West 6.9 mph - N/A   Clear
9:55 PM 28.0 °F 18.6 °F 26.2 °F 93% 30.14 in 10.0 mi WSW 10.4 mph - N/A   Clear
10:15 PM 27.9 °F 20.6 °F 26.2 °F 94% 30.15 in 10.0 mi West 6.9 mph - N/A   Clear
10:35 PM 27.3 °F 22.0 °F 25.5 °F 93% 30.14 in 10.0 mi West 4.6 mph - N/A   Scattered Clouds
10:55 PM 25.0 °F 18.1 °F 23.0 °F 92% 30.16 in 10.0 mi WSW 5.8 mph - N/A   Scattered Clouds
11:15 PM 28.9 °F 23.9 °F 27.1 °F 93% 30.15 in 10.0 mi West 4.6 mph - N/A   Overcast
11:35 PM 32.0 °F 25.6 °F 29.3 °F 90% 30.15 in 10.0 mi SW 6.9 mph - N/A   Overcast
11:55 PM 31.6 °F 25.1 °F 29.1 °F 90% 30.16 in 10.0 mi WSW 6.9 mph - N/A   Overcast